This is the latest recevied weather packets stored in our database for station/object E22ZMG-3. If no packets are shown the sender has not sent any weather packets the latest 10 day(s).
| Time | Temp. | Humidity | Pressure | Rain* | Wind** | Luminosity | Snow |
|---|---|---|---|---|---|---|---|
| 1778102630 | 31.11° C | 58% | 975 hPa | - | - | 0 W/m² | - |
| 1778095758 | 32.78° C | 54% | 974 hPa | - | - | 0 W/m² | - |
| 1778095335 | 32.78° C | 54% | 974 hPa | - | - | 0 W/m² | - |
| 1778091589 | 32.78° C | 53% | 974 hPa | - | - | 0 W/m² | - |
| 1778090965 | 33.33° C | 52% | 975 hPa | - | - | 0 W/m² | - |
| 1778090345 | 32.78° C | 53% | 975 hPa | - | - | 0 W/m² | - |
| 1778087842 | 33.89° C | 50% | 975 hPa | - | - | 0 W/m² | - |
| 1778087218 | 33.89° C | 49% | 975 hPa | - | - | 0 W/m² | - |
| 1778085344 | 35° C | 46% | 975 hPa | - | - | 0 W/m² | - |
| 1778084095 | 35° C | 45% | 975 hPa | - | - | 0 W/m² | - |
| 1778077848 | 34.44° C | 46% | 974 hPa | - | - | 0 W/m² | - |
| 1778076598 | 35° C | 45% | 974 hPa | - | - | 0 W/m² | - |
| 1778074724 | 35.56° C | 44% | 973 hPa | - | - | 0 W/m² | - |
| 1778074100 | 35.56° C | 45% | 973 hPa | - | - | 0 W/m² | - |
| 1778072851 | 36.67° C | 42% | 972 hPa | - | - | 0 W/m² | - |
| 1778070978 | 37.22° C | 40% | 972 hPa | - | - | 0 W/m² | - |
| 1778070353 | 37.22° C | 40% | 972 hPa | - | - | 0 W/m² | - |
| 1778069728 | 36.67° C | 40% | 972 hPa | - | - | 0 W/m² | - |
| 1778068480 | 36.67° C | 39% | 972 hPa | - | - | 0 W/m² | - |
| 1778067855 | 37.22° C | 38% | 972 hPa | - | - | 0 W/m² | - |
| 1778062857 | 41.11° C | 30% | 971 hPa | - | - | 0 W/m² | - |
| 1778062232 | 40.56° C | 31% | 971 hPa | - | - | 0 W/m² | - |
| 1778061609 | 40.56° C | 31% | 971 hPa | - | - | 0 W/m² | - |
| 1778060359 | 40° C | 30% | 971 hPa | - | - | 0 W/m² | - |
| 1778059735 | 39.44° C | 33% | 971 hPa | - | - | 0 W/m² | - |
* Rain since midnight (hover to see other rain measurements)
** Current wind speed in m/s (hover to see current wind gust speed)